Regional Weather Roundup
Issued by NWS Grand Forks, ND

Home | Current Version | Previous Version | Graphics & Text | Print | Product List | Glossary On
Versions: 1 2 3 4 5 6 7 8 9 10 11 12 13 14 15 16 17 18 19 20 21 22 23 24 25 26 27 28 29 30 31 32 33 34 35 36 37 38 39 40 41 42 43 44 45 46 47 48 49 50
000
ASUS43 KFGF 250831
RWRFGF
PRAIRIE TO PINES  WEATHER ROUNDUP
NATIONAL WEATHER SERVICE EASTERN NORTH DAKOTA/GRAND FORKS ND
300 AM CDT SUN JUN 25 2017

 **SATELLITE DATA USED TO AUGMENT SKY COVER AT AUTOMATED STATIONS**
 *****  WEATHER ACROSS EASTERN NORTH DAKOTA  *****

CITY           SKY/WX    TMP DP  RH WIND       PRES   REMARKS
GRAND FORKS    FAIR      45  42  89 NW8       30.19R
GRAND FRKS AFB FAIR      46  41  84 NW7       30.20R
DEVILS LAKE    FAIR      44  42  93 NW7       30.23S
FARGO          FAIR      50  43  77 NW12      30.18S
WAHPETON ARPT  CLOUDY    50  43  76 NW9       30.19S
$$

 ***** WEATHER ACROSS CENTRAL AND WESTERN NORTH DAKOTA  *****

CITY           SKY/WX    TMP DP  RH WIND       PRES   REMARKS
BISMARCK       FAIR      43  39  86 SW5       30.28F
MINOT          CLOUDY    50  40  68 SW9       30.25R
JAMESTOWN      FAIR      46  43  89 NW7       30.23S
MINOT AFB      CLOUDY    46  42  86 CALM      30.24S
GARRISON         N/A     45  37  73 W3        30.26S
WILLISTON      FAIR      50  40  68 SW7       30.26S
DICKINSON      FAIR      39  32  76 S7        30.28F
HETTINGER      FAIR      35  28  75 CALM      30.33F
$$

 *****  OTHER AIRPORT OBSERVATIONS IN OUR AREA  *****

CITY           SKY/WX    TMP DP  RH WIND       PRES   REMARKS
WALHALLA       NOT AVBL
GRAFTON AIRPOR FAIR      45  43  93 NW7       30.21S
VALLEY CITY AR FAIR      46  46 100 NW9       30.23S
CANDO          NOT AVBL
CAVALIER APRT  NOT AVBL
GWINNER        MOSUNNY   50  43  76 W6        30.22S
SHEYENNE NWR     N/A     47  42  83 NW6       29.95S
ROLLA            N/A     43  43 100 W8        30.24S
 ***** THE ABOVE OBSERVATIONS ARE NON NWS ARE NOT QUALITY
       CONTROLLED AND MAY MIS-REPORT RAIN FOR SNOW...
$$

  *****  WEATHER ACROSS NORTHERN MINNESOTA  *****

CITY           SKY/WX    TMP DP  RH WIND       PRES   REMARKS
FLAG ISLAND    RAIN      52  48  87 NW17      30.11R
WARROAD        LGT RAIN  48  45  87 NW6       30.14S
ROSEAU         CLOUDY    48  45  87 NW8       30.14S
HALLOCK        FAIR      41  39  93 NW7       30.18S
THF RVR FALLS  MOCLDY    49  46  90 NW12      30.16S
BAUDETTE       LGT RAIN  52  50  93 NW9       30.09S
WASKISH        RAIN      52  50  93 NW10G17   30.08S
CROOKSTON      FAIR      46  45  93 NW9       30.18S
STEPHEN NDAWN    N/A     45  41  87 NW7         N/A
GREENBUSH NDAW   N/A     48  46  93 NW7         N/A
$$
  *****  WEATHER ACROSS CENTRAL AND WEST MINNESOTA  *****

CITY           SKY/WX    TMP DP  RH WIND       PRES   REMARKS
FOSSTON        CLOUDY    46  46 100 NW13      30.14S
BEMIDJI        DRIZZLE   49  48  97 NW13      30.09S
PARK RAPIDS    CLOUDY    51  47  86 NW14      30.09S
ELBOW LAKE     CLOUDY    50  44  79 W14       30.16S
WADENA         CLOUDY    48  46  93 NW12      30.11S
DETROIT LAKES  CLOUDY    48  46  93 NW12      30.15S
MOORHEAD       FAIR      50  43  76 NW9       30.19R
FERGUS FALLS   CLOUDY    50  43  76 NW14      30.15S
MORRIS MN      FAIR      50  43  76 NW14      30.16S
STAPLES        CLOUDY    50  46  87 NW10      30.09S
$$
  *****  WEATHER ELSEWHERE ACROSS MINNESOTA  *****

CITY           SKY/WX    TMP DP  RH WIND       PRES   REMARKS
DULUTH         CLOUDY    53  50  89 NW7       30.00R
INTRNTL FALLS  LGT RAIN  52  49  89 NW8       30.04S
ELY            CLOUDY    52  52 100 CALM      30.00S
CLOQUET        CLOUDY    52  48  87 W6        30.01S
WHEATON        CLOUDY    52  43  71 W9G16     30.20S
BRAINERD       CLOUDY    53  50  89 W10       30.07S
HIBBING        CLOUDY    52  51  97 NW8       30.01S
ALEXANDRIA     CLOUDY    50  47  89 NW16G23   30.14S
SAINT CLOUD    CLOUDY    53  49  86 NW13G20   30.08F
MINNEAPOLIS    CLOUDY    56  47  71 NW9       30.07S
$$

  *****  WEATHER ACROSS SOUTH DAKOTA  *****

CITY           SKY/WX    TMP DP  RH WIND       PRES   REMARKS
SIOUX FALLS    FAIR      49  45  86 W7        30.22S
BROOKINGS      FAIR      51  43  74 N8        30.22R
WATERTOWN      MOCLDY    51  42  71 NW14      30.21S
HURON          FAIR      45  43  93 NW7       30.26S
SISSETON         N/A     50  41  71 NW12      30.19F
ABERDEEN       FAIR      47  42  83 NW8       30.26R
MITCHELL       NOT AVBL
PIERRE         NOT AVBL
MOBRIDGE       FAIR      42  38  85 CALM      30.28S
RAPID CITY     CLOUDY    49  34  56 W3        30.38S
$$

  *****  SOME WEATHER IN NEARBY STATES *****

CITY           SKY/WX    TMP DP  RH WIND       PRES   REMARKS
GLASGOW MT     FAIR      51  34  52 E6        30.26F
GREAT FALLS MT FAIR      51  42  71 CALM      30.33S
CHEYENNE WY    CLOUDY    53  38  56 CALM      30.40F
SCOTTSBLUFF NE MOCLDY    60  38  43 NE15      30.36R
OMAHA NE       FAIR      55  44  66 N5        30.24R
DES MOINES IA  FAIR      54  46  74 W5        30.17S
DAVENPORT IA   FAIR      52  50  93 W6        30.12S
CHICAGO IL     FAIR      57  47  69 W9        30.05S
EAU CLAIRE WI  FAIR      51  48  89 W7        30.02S
LA CROSSE WI   FAIR      55  50  83 CALM      30.05S
$$

  *****  SOME NATIONAL WEATHER *****

CITY           SKY/WX    TMP DP  RH WIND       PRES   REMARKS
LA GUARDIA NY  FAIR      72  60  66 N8        29.92R
RALEIGH NC     MOCLDY    70  69  97 CALM      30.02S
ATLANTA GA     MOCLDY    70  67  90 NW9       30.08S
NEW ORLEANS LA FAIR      74  74 100 CALM      30.08S
OKLAHOMA CITY  MOCLDY    65  55  70 CALM      30.26S
ALBUQUERQUE NM FAIR      70  55  59 E21G30    30.25S
SALT LAKE CITY FAIR      68  37  32 SW5       30.15F
LOS ANGELES CA FAIR      64  61  90 W5        29.86F
BOISE ID       FAIR      65  42  43 SE10      30.09S
SEATTLE WA     FAIR      73  51  46 N14       29.97F
$$

*** WEATHER ACROSS MANITOBA...SASKATCHEWAN AND ONTARIO ***
                ***ONTARIO***

CITY           SKY/WX    TMP DP  RH WIND       PRES   REMARKS
GERALDTON      MOCLDY    52  41  66 NE10      29.99S
THUNDER BAY    CLOUDY    50  50 100 W3        29.94S
SIOUX LOOKOUT  CLOUDY    50  46  87 N5        30.04S
TORONTO        PTCLDY    57  54  88 W6        29.91F
BIG TROUT LK   MOCLDY    39  39 100 W6        30.04F
PICKLE LAKE    NOT AVBL
DRYDEN         CLOUDY    48  46  93 N7        30.05S
KENORA         CLOUDY    50  45  81 N6        30.10R
$$
                *** MANITOBA***

CITY           SKY/WX    TMP DP  RH WIND       PRES   REMARKS
BRANDON        CLEAR     37  36  93 W7        30.23R
DAUPHIN        CLEAR     45  43  93 W8        30.23S
ISLAND LAKE    MOCLDY    54  45  71 NW8       30.10S
PILOT MOUND      N/A     39  37  93 W2          N/A
THE PAS        CLEAR     46  41  81 W2        30.21S
THOMPSON       MOCLDY    45  41  87 W3        30.12F
WINNIPEG       PTCLDY    39  39 100 N6        30.19R
LYNN LAKE      PTCLDY    50  37  62 W7        30.16F
CHURCHILL      MOCLDY    54  46  76 NW9       29.97S
GILLAM         MOCLDY    45  36  70 SW8       30.07S
$$
                ***SASKATCHEWAN***

CITY           SKY/WX    TMP DP  RH WIND       PRES   REMARKS
ESTEVAN        PTCLDY    50  46  87 S6        30.25S
KINDERSLEY     PTCLDY    45  43  93 W6        30.26S
LLOYDMINSTER   CLEAR     46  46 100 CALM      30.27S FOG
PRINCE ALBERT  PTCLDY    45  43  93 CALM      30.28S
REGINA         CLOUDY    48  45  87 NE2       30.26R
YORKTON        PTCLDY    45  45 100 SW5       30.24S
N. BATTLEFORD  PTCLDY    43  43 100 NW5       30.29S FOG
LA RONGE       MOCLDY    46  43  87 CALM      30.25S
SASKATOON      PTCLDY    48  46  93 W5        30.26S
SWIFT CURRENT  CLOUDY    50  46  87 SW8       30.26F
$$
NOTE: THESE ARE AUTOMATED STATIONS WITH LIMITED QUALITY CONTROL
      "FAIR" INDICATES FEW OR NO CLOUDS BELOW 12,000 FEET WITH NO
      SIGNIFICANT WEATHER AND/OR OBSTRUCTIONS TO VISIBILITY.
      SKY/WX - SKY CONDITION AND SIGNIFICANT WEATHER.
      TMP - AIR TEMPERATURE.    DP   - DEWPOINT TEMPERATURE.
      RH  - RELATIVE HUMIDITY.  PRES - PRESSURE.
      HX  - HEAT INDEX.         WCI  - WIND CHILL INDEX.
$



USA.gov is the U.S. government's official web portal to all federal, state and local government web resources and services.